| time (UTC) | temp F | wind direction | speed knots | gust knots | rain 1hr in | rain 24hr in | rain mn in | humidity % | barometer mb |
| 20260505173000 | 0 | 0.0 | 0.0 | 0.00 | 0.00 | 0.00 | 1010.2 | ||
| 20260505171603 | 0 | 0.0 | 0.0 | 0.00 | 0.00 | 0.00 | 1010.1 | ||
| 20260505170053 | 0 | 0.0 | 0.0 | 0.00 | 0.00 | 0.00 | 1010.1 | ||
| 20260505164549 | 0 | 0.0 | 0.0 | 0.00 | 0.00 | 0.00 | 1010.0 | ||
| 20260505163046 | 0 | 0.0 | 0.0 | 0.00 | 0.00 | 0.00 | 1009.8 | ||
| 20260505161539 | 0 | 0.0 | 0.0 | 0.00 | 0.00 | 0.00 | 1009.8 | ||
| 20260505153036 | 0 | 0.0 | 0.0 | 0.00 | 0.00 | 0.00 | 1009.6 | ||
| 20260505151523 | 0 | 0.0 | 0.0 | 0.00 | 0.00 | 0.00 | 1009.6 | ||
| 20260505124540 | 0 | 0.0 | 0.0 | 0.00 | 0.00 | 0.00 | 1009.7 | ||
| 20260505123047 | 0 | 0.0 | 0.0 | 0.00 | 0.00 | 0.00 | 1009.8 | ||
| 20260505121531 | 0 | 0.0 | 0.0 | 0.00 | 0.00 | 0.00 | 1009.9 | ||
| 20260505120026 | 0 | 0.0 | 0.0 | 0.00 | 0.00 | 0.00 | 1009.7 | ||
| 20260505114522 | 0 | 0.0 | 0.0 | 0.00 | 0.00 | 0.00 | 1010.0 | ||
| 20260505113017 | 0 | 0.0 | 0.0 | 0.00 | 0.00 | 0.00 | 1010.0 | ||
| 20260505111514 | 0 | 0.0 | 0.0 | 0.00 | 0.00 | 0.00 | 1009.9 | ||
| 20260505101602 | 0 | 0.0 | 0.0 | 0.00 | 0.00 | 0.00 | 1010.0 | ||
| 20260505100052 | 0 | 0.0 | 0.0 | 0.00 | 0.00 | 0.00 | 1010.0 | ||
| 20260505094548 | 0 | 0.0 | 0.0 | 0.00 | 0.00 | 0.00 | 1010.0 | ||
| 20260505093043 | 0 | 0.0 | 0.0 | 0.00 | 0.00 | 0.00 | 1009.9 | ||
| 20260505091548 | 0 | 0.0 | 0.0 | 0.00 | 0.00 | 0.00 | 1010.0 | ||
| 20260505090036 | 0 | 0.0 | 0.0 | 0.00 | 0.00 | 0.00 | 1009.9 | ||
| 20260505084535 | 0 | 0.0 | 0.0 | 0.00 | 0.00 | 0.00 | 1009.8 | ||
| 20260505083025 | 0 | 0.0 | 0.0 | 0.00 | 0.00 | 0.00 | 1009.8 | ||
| 20260505081523 | 0 | 0.0 | 0.0 | 0.00 | 0.00 | 0.00 | 1009.7 | ||
| 20260505080016 | 0 | 0.0 | 0.0 | 0.00 | 0.00 | 0.00 | 1009.7 | ||
| 20260505074513 | 51 | 238 | 6.1 | 13.9 | 0.00 | 0.00 | 0.00 | 54 | 1009.7 |
| 20260505073008 | 50 | 246 | 5.2 | 12.2 | 0.00 | 0.00 | 0.00 | 53 | 1009.8 |
| 20260505071503 | 50 | 269 | 4.3 | 11.3 | 0.00 | 0.00 | 0.00 | 54 | 1009.6 |
| 20260505070107 | 50 | 279 | 6.1 | 11.3 | 0.00 | 0.00 | 0.00 | 53 | 1009.6 |
| 20260505064639 | 49 | 319 | 5.2 | 13.9 | 0.00 | 0.00 | 0.00 | 49 | 1009.6 |
| 20260505063051 | 48 | 290 | 5.2 | 13.9 | 0.00 | 0.00 | 0.00 | 28 | 1009.7 |
| 20260505061547 | 48 | 252 | 5.2 | 9.6 | 0.00 | 0.00 | 0.00 | 3 | 1009.4 |
| 20260505060042 | 48 | 286 | 5.2 | 11.3 | 0.00 | 0.00 | 0.00 | 1 | 1009.4 |
| 20260505054546 | 49 | 212 | 6.1 | 11.3 | 0.00 | 0.00 | 0.00 | 1 | 1009.2 |
| 20260505053034 | 49 | 268 | 3.5 | 10.4 | 0.00 | 0.00 | 0.00 | 1 | 1009.2 |
| 20260505051529 | 48 | 267 | 4.3 | 8.7 | 0.00 | 0.00 | 0.00 | 1 | 1009.1 |
| 20260505041512 | 0 | 0.0 | 0.0 | 0.00 | 0.00 | 0.00 | 1009.1 | ||
| 20260505040008 | 0 | 0.0 | 0.0 | 0.00 | 0.00 | 0.00 | 1009.0 | ||
| 20260505034503 | 0 | 0.0 | 0.0 | 0.00 | 0.02 | 0.00 | 1009.0 | ||
| 20260505033059 | 0 | 0.0 | 0.0 | 0.00 | 0.02 | 0.00 | 1008.9 | ||
| 20260505031554 | 0 | 0.0 | 0.0 | 0.00 | 0.02 | 0.00 | 1009.0 | ||
| 20260505030100 | 0 | 0.0 | 0.0 | 0.00 | 0.02 | 0.00 | 1008.9 | ||
| 20260505024552 | 0 | 0.0 | 0.0 | 0.00 | 0.06 | 0.00 | 1009.0 | ||
| 20260505023044 | 0 | 0.0 | 0.0 | 0.00 | 0.06 | 0.00 | 1009.1 | ||
| 20260505021537 | 0 | 0.0 | 0.0 | 0.00 | 0.06 | 0.00 | 1009.2 | ||
| 20260505020036 | 0 | 0.0 | 0.0 | 0.00 | 0.06 | 0.00 | 1009.3 | ||
| 20260505014535 | 0 | 0.0 | 0.0 | 0.00 | 0.12 | 0.00 | 1009.5 | ||
| 20260505013023 | 0 | 0.0 | 0.0 | 0.00 | 0.12 | 0.00 | 1009.3 | ||
| 20260505011520 | 0 | 0.0 | 0.0 | 0.00 | 0.12 | 0.00 | 1009.3 | ||
| 20260505010015 | 0 | 0.0 | 0.0 | 0.00 | 0.12 | 0.00 | 1009.4 | ||
| 20260505004527 | 0 | 0.0 | 0.0 | 0.00 | 0.19 | 0.00 | 1009.3 | ||
| 20260505003006 | 0 | 0.0 | 0.0 | 0.00 | 0.19 | 0.00 | 1009.4 | ||
| 20260505001503 | 0 | 0.0 | 0.0 | 0.00 | 0.19 | 0.00 | 1009.4 | ||
| 20260505000112 | 0 | 0.0 | 0.0 | 0.00 | 0.19 | 0.00 | 1009.3 | ||
| 20260504234553 | 0 | 0.0 | 0.0 | 0.00 | 0.20 | 0.00 | 1009.4 | ||
| 20260504233050 | 0 | 0.0 | 0.0 | 0.00 | 0.20 | 0.00 | 1009.5 | ||
| 20260504231613 | 0 | 0.0 | 0.0 | 0.00 | 0.20 | 0.00 | 1009.6 | ||
| 20260504230041 | 0 | 0.0 | 0.0 | 0.00 | 0.20 | 0.00 | 1009.6 | ||
| 20260504224541 | 0 | 0.0 | 0.0 | 0.00 | 0.20 | 0.00 | 1009.7 | ||
| 20260504223032 | 0 | 0.0 | 0.0 | 0.00 | 0.20 | 0.00 | 1009.8 | ||
| 20260504221536 | 0 | 0.0 | 0.0 | 0.00 | 0.20 | 0.00 | 1009.8 | ||
| 20260504220023 | 0 | 0.0 | 0.0 | 0.00 | 0.20 | 0.00 | 1009.8 | ||
| 20260504214519 | 0 | 0.0 | 0.0 | 0.00 | 0.20 | 0.20 | 1009.8 | ||
| 20260504213031 | 0 | 0.0 | 0.0 | 0.00 | 0.20 | 0.20 | 1009.8 | ||
| 20260504211513 | 0 | 0.0 | 0.0 | 0.00 | 0.20 | 0.20 | 1009.7 | ||
| 20260504210006 | 0 | 0.0 | 0.0 | 0.00 | 0.20 | 0.20 | 1009.7 | ||
| 20260504204501 | 0 | 0.0 | 0.0 | 0.00 | 0.20 | 0.20 | 1009.6 | ||
| 20260504203057 | 0 | 0.0 | 0.0 | 0.00 | 0.20 | 0.20 | 1009.4 | ||
| 20260504201554 | 0 | 0.0 | 0.0 | 0.00 | 0.20 | 0.20 | 1009.4 | ||
| 20260504200048 | 0 | 0.0 | 0.0 | 0.00 | 0.20 | 0.20 | 1009.3 | ||
| 20260504194551 | 0 | 0.0 | 0.0 | 0.00 | 0.20 | 0.20 | 1009.2 | ||
| 20260504193045 | 0 | 0.0 | 0.0 | 0.00 | 0.20 | 0.20 | 1009.3 | ||
| 20260504191603 | 0 | 0.0 | 0.0 | 0.00 | 0.20 | 0.20 | 1009.2 | ||
| 20260504190031 | 0 | 0.0 | 0.0 | 0.00 | 0.20 | 0.20 | 1009.1 | ||
| 20260504184540 | 0 | 0.0 | 0.0 | 0.00 | 0.20 | 0.20 | 1009.0 | ||
| 20260504183021 | 0 | 0.0 | 0.0 | 0.00 | 0.20 | 0.20 | 1008.9 | ||
| 20260504181519 | 0 | 0.0 | 0.0 | 0.00 | 0.20 | 0.20 | 1008.8 | ||
| 20260504180014 | 0 | 0.0 | 0.0 | 0.00 | 0.20 | 0.20 | 1008.7 | ||
| 20260504174510 | 0 | 0.0 | 0.0 | 0.00 | 0.20 | 0.20 | 1008.6 |